This is the latest recevied weather packets stored in our database for station/object F5MAP-5. If no packets are shown the sender has not sent any weather packets the latest 10 day(s).
| Time | Temp. | Humidity | Pressure | Rain* | Wind** | Luminosity | Snow |
|---|---|---|---|---|---|---|---|
| 1787492532 | 25° C | 45% | 1020.9 hPa | 0 mm | - | 79 W/m² | - |
| 1787491932 | 25° C | 46% | 1021 hPa | 0 mm | - | 705 W/m² | - |
| 1787491332 | 25° C | 47% | 1021 hPa | 0 mm | - | 780 W/m² | - |
| 1787490732 | 25.56° C | 46% | 1021 hPa | 0 mm | - | 306 W/m² | - |
| 1787490132 | 25.56° C | 45% | 1021 hPa | 0 mm | - | 724 W/m² | - |
| 1787489532 | 25.56° C | 46% | 1021.2 hPa | 0 mm | - | 745 W/m² | - |
| 1787488932 | 25.56° C | 46% | 1021.2 hPa | 0 mm | - | 740 W/m² | - |
| 1787488332 | 25.56° C | 46% | 1021.2 hPa | 0 mm | - | 768 W/m² | - |
| 1787487732 | 25.56° C | 46% | 1021.4 hPa | 0 mm | - | 675 W/m² | - |
| 1787487132 | 25° C | 46% | 1021.4 hPa | 0 mm | - | 770 W/m² | - |
| 1787486532 | 25.56° C | 48% | 1021.4 hPa | 0 mm | - | 770 W/m² | - |
| 1787485931 | 25° C | 49% | 1021.5 hPa | 0 mm | - | 763 W/m² | - |
| 1787485332 | 25° C | 49% | 1021.6 hPa | 0 mm | - | 756 W/m² | - |
| 1787484732 | 24.44° C | 53% | 1021.6 hPa | 0 mm | - | 765 W/m² | - |
| 1787484132 | 23.89° C | 52% | 1021.7 hPa | 0 mm | - | 761 W/m² | - |
| 1787483532 | 23.89° C | 55% | 1021.8 hPa | 0 mm | - | 758 W/m² | - |
| 1787482931 | 23.33° C | 56% | 1021.8 hPa | 0 mm | - | 745 W/m² | - |
| 1787482331 | 22.78° C | 57% | 1022 hPa | 0 mm | - | 740 W/m² | - |
| 1787481731 | 22.78° C | 58% | 1022.1 hPa | 0 mm | - | 737 W/m² | - |
| 1787481131 | 22.22° C | 60% | 1022.1 hPa | 0 mm | - | 733 W/m² | - |
| 1787480531 | 21.67° C | 62% | 1022.2 hPa | 0 mm | - | 728 W/m² | - |
| 1787479931 | 21.67° C | 62% | 1022.5 hPa | 0 mm | - | 715 W/m² | - |
| 1787479332 | 21.11° C | 64% | 1022.5 hPa | 0 mm | - | 698 W/m² | - |
| 1787478731 | 20.56° C | 67% | 1022.6 hPa | 0 mm | - | 582 W/m² | - |
| 1787478131 | 20.56° C | 67% | 1022.6 hPa | 0 mm | - | 626 W/m² | - |
* Rain latest hour (hover to see other rain measurements)
** Current wind speed in m/s (hover to see current wind gust speed)